Powrót do katalogu

OPS 4682 DEB

AktywnyPO
NORAD 38457·DEBRIS·🇺🇸 United States

Wystrzelony Apr 3, 1965 z Vandenberg Space Force Base

Loading…

Następne Przeloty (najbliższe 24 godziny)

TLE

ŚwieżeSource: Space-Track

Epoka: Sep 13, 2026, 01:26 UTC

1 38457U 65027FN  26256.05986948  .00000690  00000-0  23102-2 0  9992
2 38457  90.2386   4.1513 0032871 149.8423 210.4600 12.98576023623167

Śledź OPS 4682 DEB w czasie rzeczywistym z AllMySat

Download on the App Store